Henry Tift Myers AP, Tifton,, GA

7:14 PM EST on December 15, 2019 (GMT -0500)
Myers

Weather History for KTMA - October, 2019

Change the Weather History Date:

Thursday, October 10, 2019

  Actual Average Record
Temperature  
Mean Temperature - -  
Max Temperature - 80 °F 89 °F (2017)
Min Temperature - 58 °F 54 °F (2016)
Moisture  
Dew Point -    
Average Humidity    
Maximum Humidity    
Minimum Humidity    
Precipitation  
Precipitation 0.00 in - - ()
Sea Level Pressure  
Sea Level Pressure 30.09 in    
Wind  
Wind Speed 3 mph ()    
Max Wind Speed 12 mph    
Max Gust Speed 20 mph    
Visibility 9.7 miles    
Events      
Averages and records for this station are not official NWS values.
T = Trace of Precipitation, MM = Missing Value Source: Averaged Metar Reports

Daily Weather History Graph

Daily Weather History Graph

Search for Another Location

Airport or City:

Astronomy

Oct. 10, 2019 Rise Set
Actual Time 7:33 AM EDT 7:08 PM EDT
Civil Twilight 7:09 AM EDT 7:32 PM EDT
Nautical Twilight 6:40 AM EDT 8:00 PM EDT
Astronomical Twilight 6:12 AM EDT 8:28 PM EDT
Moon 5:53 PM EDT (10/10) 4:33 AM EDT (10/10)
Length of Visible Light 12h 23m
Length of Day
11h 34m
Waxing Gibbous, 91% of the Moon is Illuminated
Oct 10
Waxing Gibbous
Oct 13
Full
Oct 21
Last Quarter
Oct 27
New
Nov 4
First Quarter

Hourly Weather History & Observations

Time (EDT) Temp. Dew Point Humidity Pressure Visibility Wind Dir Wind Speed Gust Speed Precip Events Conditions
12:15 AM - - N/A% 30.11 in 10.0 mi Calm Calm - N/A   Clear
12:35 AM - - N/A% 30.10 in 10.0 mi Calm Calm - N/A   Clear
12:55 AM - - N/A% 30.10 in 10.0 mi Calm Calm - N/A   Clear
1:15 AM - - N/A% 30.10 in 10.0 mi Calm Calm - N/A   Clear
1:35 AM - - N/A% 30.09 in 10.0 mi Calm Calm - N/A   Clear
1:55 AM - - N/A% 30.09 in 10.0 mi Calm Calm - N/A   Clear
2:15 AM - - N/A% 30.09 in 7.0 mi Calm Calm - N/A   Clear
2:35 AM - - N/A% 30.09 in 7.0 mi Calm Calm - N/A   Clear
2:55 AM - - N/A% 30.09 in 7.0 mi Calm Calm - N/A   Clear
3:15 AM - - N/A% 30.09 in 7.0 mi Calm Calm - N/A   Clear
3:35 AM - - N/A% 30.09 in 7.0 mi Calm Calm - N/A   Clear
3:55 AM - - N/A% 30.08 in 7.0 mi NE 3.5 mph - N/A   Clear
4:15 AM - - N/A% 30.08 in 10.0 mi ENE 3.5 mph - N/A   Clear
4:35 AM - - N/A% 30.08 in 10.0 mi East 3.5 mph - N/A   Clear
4:55 AM - - N/A% 30.07 in 10.0 mi ENE 4.6 mph - N/A   Clear
5:15 AM - - N/A% 30.07 in 10.0 mi East 5.8 mph - N/A   Clear
5:35 AM - - N/A% 30.08 in 10.0 mi ENE 5.8 mph - N/A   Clear
5:55 AM - - N/A% 30.08 in 10.0 mi East 3.5 mph - N/A   Clear
6:15 AM - - N/A% 30.08 in 10.0 mi Calm Calm - N/A   Clear
6:35 AM - - N/A% 30.09 in 10.0 mi Calm Calm - N/A   Clear
6:55 AM - - N/A% 30.09 in 10.0 mi ENE 3.5 mph - N/A   Clear
7:15 AM - - N/A% 30.10 in 10.0 mi East 3.5 mph - N/A   Clear
7:35 AM - - N/A% 30.10 in 10.0 mi East 4.6 mph - N/A   Clear
7:55 AM - - N/A% 30.10 in 10.0 mi East 3.5 mph - N/A   Clear
8:15 AM - - N/A% 30.11 in 10.0 mi ENE 4.6 mph - N/A   Clear
8:35 AM - - N/A% 30.12 in 10.0 mi ENE 4.6 mph - N/A   Clear
8:55 AM - - N/A% 30.13 in 10.0 mi NE 5.8 mph - N/A   Clear
9:15 AM - - N/A% 30.13 in 10.0 mi ENE 6.9 mph - N/A   Clear
9:35 AM - - N/A% 30.14 in 10.0 mi ENE 6.9 mph - N/A   Clear
9:55 AM - - N/A% 30.14 in 10.0 mi ENE 9.2 mph - N/A   Clear
10:15 AM - - N/A% 30.15 in 10.0 mi NE 8.1 mph - N/A   Clear
10:35 AM - - N/A% 30.15 in 10.0 mi ENE 8.1 mph - N/A   Clear
10:55 AM - - N/A% 30.15 in 10.0 mi ENE 9.2 mph - N/A   Scattered Clouds
11:15 AM - - N/A% 30.14 in 10.0 mi NE 10.4 mph - N/A   Clear
11:35 AM - - N/A% 30.14 in 10.0 mi East 5.8 mph - N/A   Clear
11:55 AM - - N/A% 30.14 in 10.0 mi East 8.1 mph - N/A   Clear
12:15 PM - - N/A% 30.14 in 10.0 mi ENE 6.9 mph - N/A   Clear
12:35 PM - - N/A% 30.13 in 10.0 mi ESE 8.1 mph - N/A   Clear
12:55 PM - - N/A% 30.12 in 10.0 mi ENE 8.1 mph - N/A   Clear
1:15 PM - - N/A% 30.11 in 10.0 mi East 8.1 mph - N/A   Clear
1:35 PM - - N/A% 30.11 in 10.0 mi NE 9.2 mph - N/A   Clear
1:55 PM - - N/A% 30.10 in 10.0 mi NE 9.2 mph - N/A   Clear
2:15 PM - - N/A% 30.09 in 10.0 mi NNE 9.2 mph - N/A   Clear
2:35 PM - - N/A% 30.08 in 10.0 mi ENE 10.4 mph - N/A   Clear
3:15 PM - - N/A% 30.06 in 10.0 mi East 8.1 mph - N/A   Clear
3:35 PM - - N/A% 30.05 in 10.0 mi ENE 8.1 mph - N/A   Clear
3:55 PM - - N/A% 30.05 in 10.0 mi ENE 11.5 mph 19.6 mph N/A   Clear
4:15 PM - - N/A% 30.04 in 10.0 mi ENE 9.2 mph 18.4 mph N/A   Clear
4:35 PM - - N/A% 30.04 in 10.0 mi NE 9.2 mph 18.4 mph N/A   Clear
4:55 PM - - N/A% 30.04 in 10.0 mi ENE 10.4 mph - N/A   Clear
5:15 PM - - N/A% 30.04 in 10.0 mi NE 10.4 mph 17.3 mph N/A   Clear
5:35 PM - - N/A% 30.04 in 10.0 mi ENE 8.1 mph - N/A   Clear
5:55 PM - - N/A% 30.04 in 10.0 mi ENE 6.9 mph - N/A   Clear
6:15 PM - - N/A% 30.04 in 10.0 mi ENE 6.9 mph - N/A   Clear
6:35 PM - - N/A% 30.04 in 10.0 mi ENE 4.6 mph - N/A   Clear
6:55 PM - - N/A% 30.05 in 10.0 mi ENE 5.8 mph - N/A   Clear
7:15 PM - - N/A% 30.05 in 10.0 mi Calm Calm - N/A   Clear
7:35 PM - - N/A% 30.04 in 10.0 mi Calm Calm - N/A   Clear
7:55 PM - - N/A% 30.05 in 10.0 mi Calm Calm - N/A   Clear
8:15 PM - - N/A% 30.05 in 10.0 mi Calm Calm - N/A   Clear
8:35 PM - - N/A% 30.05 in 10.0 mi Calm Calm - N/A   Clear
8:55 PM - - N/A% 30.05 in 10.0 mi Calm Calm - N/A   Clear
9:15 PM - - N/A% 30.06 in 10.0 mi Calm Calm - N/A   Clear
9:35 PM - - N/A% 30.06 in 10.0 mi East 3.5 mph - N/A   Clear
9:55 PM - - N/A% 30.07 in 10.0 mi ESE 4.6 mph - N/A   Clear
10:15 PM - - N/A% 30.08 in 10.0 mi SE 5.8 mph - N/A   Clear
10:35 PM - - N/A% 30.09 in 10.0 mi SE 4.6 mph - N/A   Clear
10:55 PM - - N/A% 30.09 in 10.0 mi ESE 3.5 mph - N/A   Clear
11:15 PM - - N/A% 30.09 in 10.0 mi SE 5.8 mph - N/A   Clear
11:35 PM - - N/A% 30.10 in 10.0 mi SE 4.6 mph - N/A   Clear
11:55 PM - - N/A% 30.10 in 10.0 mi SE 4.6 mph - N/A   Clear